When you browse on this site, cookies collect data to enhance your experience and personalize the content and advertising you see.
Visit our Privacy Policy to learn more. By continuing to use the site, you agree to this use of cookies and data.
  • în România
  • Lista ţărilor
  • Pe 7 zile
  • Temperatura apei
  • Meteo pe hartă
  • Widget-uri
  • user-avatar
    Intrare

    Meteo pe oră la Kuznetsovsk

    Astăzi, 30 Ianuarie, Joi

    Timp Temperatura Precipitaţii Vânt Presiune Umiditate
    00:00 -2°C° 0.7 mm 6 m/s 735 mmHg 95%
    01:00 -2°C° 0.7 mm 6 m/s 736 mmHg 94%
    02:00 -2°C° 0.7 mm 6 m/s 736 mmHg 94%
    03:00 -2°C° 0.2 mm 6 m/s 736 mmHg 94%
    04:00 -2°C° 0.2 mm 6 m/s 737 mmHg 94%
    05:00 -1°C° 0.2 mm 6 m/s 737 mmHg 94%
    06:00 -1°C° 0.1 mm 6 m/s 737 mmHg 93%
    07:00 -1°C° 0.1 mm 6 m/s 738 mmHg 91%
    08:00 0°C° 0.1 mm 5 m/s 738 mmHg 90%
    09:00 0°C° 0.1 mm 5 m/s 738 mmHg 90%
    10:00 0°C° 0.1 mm 5 m/s 738 mmHg 90%
    11:00 0°C° 0.1 mm 5 m/s 739 mmHg 90%
    12:00 0°C° 0 mm 5 m/s 739 mmHg 86%
    13:00 +1°C° 0 mm 5 m/s 739 mmHg 82%
    14:00 +1°C° 0 mm 5 m/s 740 mmHg 78%
    15:00 +1°C° 0.1 mm 5 m/s 740 mmHg 82%
    16:00 0°C° 0.1 mm 5 m/s 740 mmHg 85%
    17:00 0°C° 0.1 mm 4 m/s 740 mmHg 88%
    18:00 0°C° 0 mm 4 m/s 740 mmHg 86%
    19:00 0°C° 0 mm 4 m/s 741 mmHg 83%
    20:00 0°C° 0 mm 4 m/s 741 mmHg 81%
    21:00 0°C° 0 mm 4 m/s 740 mmHg 81%
    22:00 0°C° 0 mm 4 m/s 740 mmHg 80%
    23:00 0°C° 0 mm 4 m/s 740 mmHg 80%

    Mâine, 31 Ianuarie, Vineri

    Timp Temperatura Precipitaţii Vânt Presiune Umiditate
    00:00 0°C° 0.2 mm 5 m/s 739 mmHg 86%
    01:00 0°C° 0.2 mm 5 m/s 739 mmHg 91%
    02:00 0°C° 0.2 mm 5 m/s 739 mmHg 96%
    03:00 0°C° 0.5 mm 5 m/s 738 mmHg 96%
    04:00 +1°C° 0.5 mm 5 m/s 738 mmHg 95%
    05:00 +1°C° 0.5 mm 5 m/s 737 mmHg 95%
    06:00 +1°C° 0.5 mm 6 m/s 737 mmHg 94%
    07:00 +1°C° 0.5 mm 6 m/s 736 mmHg 94%
    08:00 +1°C° 0.5 mm 6 m/s 736 mmHg 93%
    09:00 +1°C° 0.1 mm 6 m/s 735 mmHg 92%
    10:00 +1°C° 0.1 mm 5 m/s 735 mmHg 91%
    11:00 +1°C° 0.1 mm 5 m/s 735 mmHg 90%
    12:00 0°C° 1.1 mm 5 m/s 734 mmHg 92%
    13:00 0°C° 1.1 mm 4 m/s 734 mmHg 94%
    14:00 +1°C° 1.1 mm 3 m/s 733 mmHg 96%
    15:00 +1°C° 0.4 mm 3 m/s 734 mmHg 97%
    16:00 +2°C° 0.4 mm 2 m/s 734 mmHg 97%
    17:00 +4°C° 0.4 mm 1 m/s 734 mmHg 98%
    18:00 +3°C° 0 mm 2 m/s 735 mmHg 97%
    19:00 +3°C° 0 mm 2 m/s 735 mmHg 97%
    20:00 +3°C° 0 mm 2 m/s 736 mmHg 96%
    21:00 +3°C° 0 mm 2 m/s 736 mmHg 96%
    22:00 +3°C° 0 mm 2 m/s 737 mmHg 96%
    23:00 +3°C° 0 mm 2 m/s 737 mmHg 96%

    Poimâine, 1 Februarie, Sâmbătă

    Timp Temperatura Precipitaţii Vânt Presiune Umiditate
    00:00 +3°C° 0.1 mm 2 m/s 738 mmHg 96%
    01:00 +3°C° 0.1 mm 3 m/s 738 mmHg 95%
    02:00 +3°C° 0.1 mm 3 m/s 739 mmHg 95%
    03:00 +3°C° 0.2 mm 3 m/s 739 mmHg 94%
    04:00 +4°C° 0.2 mm 4 m/s 739 mmHg 93%
    05:00 +4°C° 0.2 mm 4 m/s 739 mmHg 92%
    06:00 +4°C° 0 mm 4 m/s 739 mmHg 92%
    07:00 +4°C° 0 mm 4 m/s 739 mmHg 92%
    08:00 +4°C° 0 mm 4 m/s 739 mmHg 92%
    09:00 +4°C° 0 mm 4 m/s 739 mmHg 92%
    10:00 +4°C° 0 mm 4 m/s 739 mmHg 92%
    11:00 +5°C° 0 mm 4 m/s 739 mmHg 92%
    12:00 +5°C° 0.2 mm 4 m/s 739 mmHg 92%
    13:00 +5°C° 0.2 mm 4 m/s 739 mmHg 92%
    14:00 +5°C° 0.2 mm 4 m/s 739 mmHg 92%
    15:00 +6°C° 0.3 mm 5 m/s 738 mmHg 89%
    16:00 +6°C° 0.3 mm 5 m/s 738 mmHg 86%
    17:00 +6°C° 0.3 mm 5 m/s 738 mmHg 84%
    18:00 +6°C° 0 mm 5 m/s 738 mmHg 83%
    19:00 +6°C° 0 mm 5 m/s 738 mmHg 83%
    20:00 +5°C° 0 mm 6 m/s 737 mmHg 82%
    21:00 +6°C° 0 mm 5 m/s 737 mmHg 83%
    22:00 +6°C° 0 mm 5 m/s 736 mmHg 83%
    23:00 +6°C° 0 mm 5 m/s 736 mmHg 83%

    2 Februarie, Duminică

    Timp Temperatura Precipitaţii Vânt Presiune Umiditate
    00:00 +6°C° 0.1 mm 5 m/s 735 mmHg 85%
    01:00 +6°C° 0.1 mm 5 m/s 735 mmHg 86%
    02:00 +6°C° 0.1 mm 5 m/s 734 mmHg 88%
    03:00 +5°C° 0.6 mm 6 m/s 733 mmHg 89%
    04:00 +5°C° 0.6 mm 6 m/s 733 mmHg 89%
    05:00 +6°C° 0.6 mm 7 m/s 732 mmHg 90%
    06:00 +6°C° 0.2 mm 7 m/s 732 mmHg 89%
    07:00 +7°C° 0.2 mm 6 m/s 732 mmHg 89%
    08:00 +7°C° 0.2 mm 6 m/s 731 mmHg 88%
    09:00 +7°C° 1.1 mm 6 m/s 732 mmHg 89%
    10:00 +7°C° 1.1 mm 6 m/s 732 mmHg 90%
    11:00 +7°C° 1.1 mm 6 m/s 733 mmHg 91%
    12:00 +5°C° 1.1 mm 7 m/s 734 mmHg 84%
    13:00 +5°C° 1.1 mm 7 m/s 735 mmHg 77%
    14:00 +4°C° 1.1 mm 8 m/s 735 mmHg 70%
    15:00 +4°C° 0 mm 7 m/s 736 mmHg 72%
    16:00 +3°C° 0 mm 7 m/s 736 mmHg 73%
    17:00 +3°C° 0 mm 6 m/s 737 mmHg 74%
    18:00 +3°C° 0 mm 6 m/s 737 mmHg 78%
    19:00 +3°C° 0 mm 6 m/s 737 mmHg 81%
    20:00 +2°C° 0 mm 6 m/s 737 mmHg 85%
    21:00 +3°C° 0.2 mm 6 m/s 737 mmHg 86%
    22:00 +3°C° 0.2 mm 6 m/s 737 mmHg 87%
    23:00 +3°C° 0.2 mm 6 m/s 737 mmHg 88%

    3 Februarie, Luni

    Timp Temperatura Precipitaţii Vânt Presiune Umiditate
    00:00 +3°C° 0.1 mm 6 m/s 737 mmHg 83%
    01:00 +2°C° 0.1 mm 6 m/s 737 mmHg 79%
    02:00 +2°C° 0.1 mm 6 m/s 737 mmHg 75%
    03:00 +2°C° 0 mm 6 m/s 737 mmHg 75%
    04:00 +2°C° 0 mm 6 m/s 737 mmHg 76%
    05:00 +2°C° 0 mm 6 m/s 737 mmHg 76%
    06:00 +2°C° 0 mm 6 m/s 737 mmHg 77%
    07:00 +1°C° 0 mm 6 m/s 737 mmHg 77%
    08:00 +1°C° 0 mm 6 m/s 737 mmHg 77%
    09:00 +1°C° 0 mm 6 m/s 737 mmHg 78%
    10:00 +1°C° 0 mm 6 m/s 738 mmHg 79%
    11:00 +2°C° 0 mm 6 m/s 738 mmHg 80%
    12:00 +2°C° 0.1 mm 6 m/s 739 mmHg 76%
    13:00 +2°C° 0.1 mm 6 m/s 739 mmHg 72%
    14:00 +3°C° 0.1 mm 6 m/s 739 mmHg 67%
    15:00 +2°C° 0 mm 6 m/s 740 mmHg 68%
    16:00 +2°C° 0 mm 5 m/s 740 mmHg 68%
    17:00 +1°C° 0 mm 5 m/s 740 mmHg 68%
    18:00 +1°C° 0 mm 5 m/s 740 mmHg 71%
    19:00 +1°C° 0 mm 5 m/s 741 mmHg 73%
    20:00 +1°C° 0 mm 5 m/s 741 mmHg 76%
    21:00 0°C° 0 mm 4 m/s 741 mmHg 77%
    22:00 0°C° 0 mm 4 m/s 741 mmHg 78%
    23:00 0°C° 0 mm 3 m/s 741 mmHg 79%

    4 Februarie, Marţi

    Timp Temperatura Precipitaţii Vânt Presiune Umiditate
    00:00 0°C° 0 mm 3 m/s 741 mmHg 80%
    01:00 0°C° 0 mm 3 m/s 741 mmHg 81%
    02:00 -1°C° 0 mm 3 m/s 741 mmHg 82%
    03:00 -1°C° 0 mm 3 m/s 740 mmHg 83%
    04:00 -1°C° 0 mm 2 m/s 740 mmHg 84%
    05:00 -1°C° 0 mm 2 m/s 739 mmHg 85%
    06:00 +1°C° 0.1 mm 2 m/s 738 mmHg 89%
    07:00 +1°C° 0.1 mm 2 m/s 738 mmHg 92%
    08:00 +1°C° 0.1 mm 2 m/s 737 mmHg 96%
    09:00 0°C° 0.8 mm 3 m/s 736 mmHg 96%
    10:00 0°C° 0.8 mm 4 m/s 735 mmHg 96%
    11:00 0°C° 0.8 mm 4 m/s 734 mmHg 97%
    12:00 +1°C° 1 mm 4 m/s 733 mmHg 96%
    13:00 +1°C° 1 mm 4 m/s 732 mmHg 96%
    14:00 +3°C° 1 mm 4 m/s 731 mmHg 95%
    15:00 +3°C° 0.4 mm 4 m/s 731 mmHg 95%
    16:00 +4°C° 0.4 mm 3 m/s 730 mmHg 94%
    17:00 +5°C° 0.4 mm 3 m/s 730 mmHg 94%
    18:00 +4°C° 0.2 mm 3 m/s 730 mmHg 95%
    19:00 +5°C° 0.2 mm 2 m/s 730 mmHg 95%
    20:00 +5°C° 0.2 mm 2 m/s 730 mmHg 96%
    21:00 +5°C° 0.2 mm 2 m/s 730 mmHg 96%
    22:00 +5°C° 0.2 mm 2 m/s 730 mmHg 96%
    23:00 +5°C° 0.2 mm 2 m/s 730 mmHg 96%
    Arată mai mult